Weather History for KDVN - March, 2013

Change the Weather History Date:

Sunday, March 17, 2013

  Actual Average Record
Temperature  
Mean Temperature 31 °F 39 °F  
Max Temperature 36 °F 49 °F 84 °F (2012)
Min Temperature 25 °F 29 °F 14 °F (1959)
Degree Days  
Heating Degree Days 34 26  
Month to date heating degree days 609 510  
Since 1 July heating degree days 5395 5535  
Cooling Degree Days 0 0  
Month to date cooling degree days 0 0  
Year to date cooling degree days 0 0  
Moisture  
Dew Point 22 °F    
Average Humidity 67    
Maximum Humidity 78    
Minimum Humidity 56    
Precipitation  
Precipitation 0.00 in 0.09 in 0.55 in (1965)
Month to date precipitation 1.76 1.32  
Year to date precipitation 5.46 3.85  
Snow  
Snow 0.00 in - - ()
Month to date snowfall 5.6  
Since 1 July snowfall 24.2  
Snow Depth 0.00 in    
Sea Level Pressure  
Sea Level Pressure 30.11 in    
Wind  
Wind Speed 14 mph (ENE)    
Max Wind Speed 20 mph    
Max Gust Speed 24 mph    
Visibility 10 miles    
Events      
T = Trace of Precipitation, MM = Missing Value Source: NWS Daily Summary

Daily Weather History Graph

Daily Weather History Graph

Search for Another Location

Airport or City:

Trip Planner

Search our weather history database for the weather conditions in past years. The results will help you decide how hot, cold, wet, or windy it might be!

Date:

Astronomy

Mar. 17, 2013 Rise Set
Actual Time 7:10 AM CDT 7:11 PM CDT
Civil Twilight 6:42 AM CDT 7:39 PM CDT
Nautical Twilight 6:10 AM CDT 8:11 PM CDT
Astronomical Twilight 5:37 AM CDT 8:44 PM CDT
Moon 10:18 AM CDT (3/17) 12:23 AM CDT (3/17)
Length of Visible Light 12h 56m
Length of Day
12h 01m
Waxing Crescent, 31% of the Moon is Illuminated
Mar 17
Waxing Crescent
Mar 19
First Quarter
Mar 27
Full
Apr 2
Last Quarter
Apr 10
New

Hourly Weather History & Observations

Time (CDT) Temp. Windchill Dew Point Humidity Pressure Visibility Wind Dir Wind Speed Gust Speed Precip Events Conditions
12:38 AM 28.4 °F 18.0 °F 23.0 °F 80% 30.15 in 10.0 mi NNW 12.7 mph - N/A   Scattered Clouds
12:52 AM 28.9 °F 17.7 °F 21.0 °F 72% 30.17 in 10.0 mi NNW 15.0 mph - N/A   Clear
1:52 AM 28.0 °F 17.0 °F 21.0 °F 75% 30.17 in 10.0 mi North 13.8 mph - N/A   Clear
2:52 AM 27.0 °F 16.7 °F 19.0 °F 72% 30.16 in 10.0 mi North 11.5 mph - N/A   Clear
3:52 AM 27.0 °F 15.2 °F 19.0 °F 72% 30.15 in 10.0 mi North 15.0 mph - N/A   Clear
4:52 AM 27.0 °F 16.7 °F 19.0 °F 72% 30.15 in 10.0 mi NNE 11.5 mph - N/A   Clear
5:52 AM 26.1 °F 15.6 °F 18.0 °F 71% 30.19 in 10.0 mi NE 11.5 mph - N/A   Clear
6:52 AM 25.0 °F 12.6 °F 17.1 °F 72% 30.19 in 10.0 mi ENE 15.0 mph - N/A   Clear
7:52 AM 25.0 °F 14.2 °F 15.1 °F 66% 30.20 in 10.0 mi ENE 11.5 mph - N/A   Clear
8:52 AM 27.0 °F 15.6 °F 16.0 °F 63% 30.22 in 10.0 mi East 13.8 mph - N/A   Clear
9:52 AM 28.9 °F 17.3 °F 16.0 °F 58% 30.22 in 10.0 mi East 16.1 mph 21.9 mph N/A   Clear
10:52 AM 30.9 °F 20.7 °F 18.0 °F 59% 30.20 in 10.0 mi East 13.8 mph - N/A   Clear
11:52 AM 32.0 °F 21.2 °F 19.9 °F 61% 30.19 in 10.0 mi SE 16.1 mph - N/A   Scattered Clouds
12:52 PM 35.1 °F 25.2 °F 21.9 °F 59% 30.15 in 10.0 mi ESE 16.1 mph - N/A   Scattered Clouds
1:32 PM 35.6 °F 26.6 °F 21.2 °F 56% 30.11 in 10.0 mi East 13.8 mph - N/A   Mostly Cloudy
1:52 PM 36.0 °F 28.0 °F 23.0 °F 59% 30.13 in 10.0 mi ESE 11.5 mph 21.9 mph N/A   Mostly Cloudy
2:52 PM 35.1 °F 24.8 °F 23.0 °F 61% 30.10 in 10.0 mi East 17.3 mph - N/A   Overcast
3:52 PM 35.1 °F 24.8 °F 24.1 °F 64% 30.07 in 10.0 mi East 17.3 mph - N/A   Overcast
4:52 PM 35.1 °F 25.2 °F 24.1 °F 64% 30.06 in 10.0 mi East 16.1 mph - N/A   Overcast
5:52 PM 35.1 °F 25.5 °F 25.0 °F 67% 30.04 in 10.0 mi East 15.0 mph - N/A   Overcast
6:52 PM 33.1 °F 22.6 °F 25.0 °F 72% 30.02 in 10.0 mi East 16.1 mph - N/A   Overcast
7:52 PM 33.1 °F 23.4 °F 26.1 °F 75% 30.02 in 10.0 mi East 13.8 mph - N/A   Overcast
8:52 PM 32.0 °F 22.1 °F 26.1 °F 79% 30.01 in 10.0 mi East 13.8 mph 20.7 mph N/A   Overcast
9:14 PM 32.0 °F 23.0 °F 26.6 °F 80% 29.97 in 9.0 mi East 11.5 mph - N/A   Scattered Clouds
9:52 PM 32.0 °F 21.6 °F 25.0 °F 75% 29.99 in 10.0 mi ESE 15.0 mph - N/A   Clear
10:52 PM 32.0 °F 21.6 °F 25.0 °F 75% 29.98 in 9.0 mi East 15.0 mph - N/A   Partly Cloudy
11:52 PM 32.0 °F 21.6 °F 25.0 °F 75% 29.94 in 9.0 mi East 15.0 mph - N/A   Overcast